{"data":{"norad_id":64287,"epoch":"2026-05-25T04:06:31.785408Z","epoch_age_seconds":63729,"freshness":"FRESH","line1":"1 64287U 25121E   26145.17120122  .00000024  00000+0  21854-4 0  9991","line2":"2 64287  86.5006  21.2927 0001754  98.6727 261.4606 13.24408206 47111","mean_motion":13.24408206,"eccentricity":0.0001754,"inclination_deg":86.5006,"raan_deg":21.2927,"arg_perigee_deg":98.6727,"mean_anomaly_deg":261.4606,"bstar":2.1854e-5,"rev_number":4711,"period_min":108.72780714257,"perigee_km":1166.6054200786,"apogee_km":1169.2525800315,"semimajor_km":7546.066000055,"source":"CELESTRAK","updated_at":"2026-05-25T13:38:04.387117Z"}}